Miscellaneous Local Product
Issued by NWS Hastings, NE

Home | Current Version | Previous Version | Graphics & Text | Print | Product List | Glossary On
Versions: 1 2 3 4 5 6 7 8 9 10 11 12 13 14 15 16 17 18 19 20 21 22 23 24 25 26 27 28 29 30 31 32 33 34 35 36 37 38 39 40 41 42 43 44 45 46 47 48 49 50
407
AXUS43 KGID 241802
MISGRI

GID CWA HOURLY WEATHER ROUNDUP
NATIONAL WEATHER SERVICE HASTINGS NE
100 PM CDT WED AUG 24 2016

NOTE: "FAIR" INDICATES FEW OR NO CLOUDS BELOW 12,000 FEET WITH NO
SIGNIFICANT WEATHER AND/OR OBSTRUCTIONS TO VISIBILITY.

...SOUTH CENTRAL NEBRASKA...

CITY           SKY/WX    TMP DP  RH WIND       PRES   REMARKS
GRAND ISLAND   CLOUDY    74  51  44 N10       30.09R
HASTINGS       CLOUDY    71  55  56 NE7       30.08F
KEARNEY        CLOUDY    66  54  63 N6        30.10R
ORD            CLOUDY    76  48  37 N9        30.09S
YORK           PTSUNNY   73  55  53 NE8       30.07R
AURORA         CLOUDY    74  55  51 NE7       30.07F
LEXINGTON      PTSUNNY   73  48  41 NE5       30.12R
HOLDREGE       CLOUDY    65  52  63 NE7       30.09F
HEBRON         CLOUDY    73  67  80 E6        30.03F

...NEBRASKA PANHANDLE...

CITY           SKY/WX    TMP DP  RH WIND       PRES   REMARKS
CHADRON        CLOUDY    69  42  37 NE8       30.21F
ALLIANCE       MOSUNNY   67  40  37 VRB7      30.22F
SCOTTSBLUFF    CLOUDY    68  44  42 E7        30.22F
SIDNEY         CLOUDY    67  39  35 E7        30.24F

...WESTERN AND NORTH CENTRAL NEBRASKA...

CITY           SKY/WX    TMP DP  RH WIND       PRES   REMARKS
VALENTINE      CLOUDY    66  45  46 N13       30.17F
AINSWORTH      MOSUNNY   67  50  53 N13       30.17R
ONEILL         PTSUNNY   75  47  36 N12       30.13S
BROKEN BOW     CLOUDY    71  48  43 NE8       30.13S
IMPERIAL       CLOUDY    76  36  23 E14       30.19R
NORTH PLATTE   CLOUDY    79  43  27 N13       30.15S
MCCOOK         CLOUDY    74  44  34 NE13      30.12F

...EASTERN NEBRASKA...

CITY           SKY/WX    TMP DP  RH WIND       PRES   REMARKS
NORFOLK        CLOUDY    71  56  58 N12       30.06F
SO SIOUX CITY  CLOUDY    74  63  68 NW10      30.02S
TEKAMAH        MOSUNNY   79  62  56 N8        30.01R
COLUMBUS       CLOUDY    77  55  47 NE6       30.06R
ALBION         CLOUDY    71  53  54 N13       30.08S
OMAHA EPPLEY   PTSUNNY   82  64  54 NE12      29.99F
OFFUTT AFB     PTSUNNY   79  68  69 NE6       29.99F
MILLARD        MOSUNNY   81  63  54 NE10      30.00F
LINCOLN        MOSUNNY   82  60  47 N14       30.03R
NEBRASKA CITY  CLOUDY    75  68  79 CALM      30.02R
BEATRICE       CLOUDY    75  66  74 CALM      30.03S THUNDER
FALLS CITY     CLOUDY    76  70  82 N5        30.00F

...NORTHERN KANSAS...

CITY           SKY/WX    TMP DP  RH WIND       PRES   REMARKS
GOODLAND       CLOUDY    71  38  29 NE21G26   30.16R
HILL CITY      CLOUDY    73  53  49 E13G21    30.07R
NORTON         MOCLDY    70  43  37 N12       30.07R
SMITH CENTER   TSTM      61  55  82 E21G26    30.08S
BELOIT         MOSUNNY   72  66  83 N8        29.99R
HAYS           CLOUDY    70  59  68 N17       30.02F
RUSSELL        NOT AVBL
CONCORDIA      MOSUNNY   75  67  76 NE10      29.99F
SALINA         MOSUNNY   83  65  54 S10       29.97S
TOPEKA         CLOUDY    78  73  84 E3        29.99F



USA.gov is the U.S. government's official web portal to all federal, state and local government web resources and services.